[[[{"header":{"parameterUnit":"kt","parameterCategory":2,"dx":1,"dy":1,"la1":30.253999710083008,"la2":30.299108505249023,"lo1":-89.0895004272461,"lo2":-89.04439544677734,"nx":28,"ny":28,"refTime":"2022-09-25T21:00:00:Z","depth":0,"parameterNumber":1,"parameterNumberName":"U-component_of_WINDS"},"data":[4.0858,4.0989,4.1039,4.121,4.1284,4.1409,4.1469,4.1552,4.1631,4.1785,4.1882,4.1945,4.2043,4.217,4.2276,4.2302,4.2342,4.235,4.2378,4.2297,4.2289,4.2281,4.2253,4.2359,4.236,4.2454,4.2455,4.2456,4.0788,4.0863,4.097,4.1107,4.1197,4.1219,4.1329,4.1403,4.1514,4.1613,4.1712,4.1852,4.1968,4.2066,4.2185,4.2245,4.2261,4.2274,4.2268,4.2283,4.2199,4.2168,4.2258,4.2258,4.2258,4.2258,4.2258,4.2258,4.0674,4.0751,4.0864,4.0981,4.1064,4.1155,4.1236,4.1314,4.1418,4.1551,4.1592,4.1718,4.1826,4.1997,4.2067,4.2166,4.2161,4.219,4.2197,4.2202,4.2199,4.2049,4.2189,4.2189,4.2189,4.2189,4.2189,0,4.0606,4.0643,4.075,4.0871,4.0959,4.1058,4.1157,4.121,4.1306,4.1388,4.1511,4.159,4.1746,4.1866,4.1991,4.2059,4.2088,4.2099,4.2118,4.2098,4.2062,4.2079,4.1935,4.2094,4.2093,4.2093,4.2092,4.2092,4.0491,4.0577,4.0721,4.0789,4.0857,4.0966,4.1041,4.112,4.1196,4.133,4.1393,4.1516,4.1619,4.1807,4.1896,4.2012,4.2027,4.2081,4.2045,4.2022,4.2024,4.2017,4.2024,4.2086,4.2087,4.2087,4.2088,0,4.042,4.0505,4.0655,4.0791,4.0827,4.0912,4.1027,4.1108,4.1175,4.1295,4.1328,4.1433,4.1552,4.1634,4.1788,4.1826,4.1962,4.1976,4.1924,4.193,4.1983,4.1976,4.2153,4.2179,4.2073,4.2074,4.2075,0,4.0354,4.0465,4.0584,4.0667,4.0791,4.0869,4.0989,4.1059,4.1156,4.1252,4.1301,4.1389,4.148,4.158,4.1638,4.1764,4.1794,4.183,4.1843,4.1824,4.1819,4.1863,4.1856,4.1875,4.1874,4.1874,4.1873,0,4.0232,4.0428,4.0564,4.0622,4.0778,4.0839,4.0907,4.1017,4.1091,4.1199,4.1247,4.1368,4.1434,4.1525,4.1597,4.1569,4.1756,4.1732,4.1792,4.179,4.1827,4.1823,4.1962,4.1872,4.1871,4.1871,4.1871,0,4.0192,4.0302,4.0487,4.0618,4.0666,4.0756,4.088,4.0977,4.1089,4.1132,4.1218,4.126,4.1381,4.135,4.1516,4.1458,4.1519,4.1566,4.1572,4.1585,4.1548,4.1611,4.1738,4.1752,4.1599,4.1597,4.1595,0,4.0026,4.0238,4.0307,4.0482,4.059,4.0637,4.0739,4.0838,4.0904,4.1004,4.1076,4.119,4.1186,4.1233,4.1305,4.1383,4.1459,4.1376,4.1514,4.1518,4.1479,4.1598,4.1594,4.1701,4.1568,4.1571,4.1573,0,3.9909,4.0102,4.0128,4.0197,4.0344,4.0436,4.0553,4.0685,4.0747,4.0856,4.0953,4.1119,4.112,4.1199,4.1246,4.1317,4.141,4.131,4.1314,4.1321,4.1562,4.1558,4.1576,4.1426,4.1429,4.1432,4.1551,0,3.9821,3.994,4.0017,4.017,4.0255,4.0371,4.0461,4.0538,4.0575,4.0642,4.079,4.0895,4.1029,4.1073,4.1111,4.1248,4.1237,4.1239,4.1213,4.1292,4.1333,4.135,4.1145,4.1145,4.1144,4.1144,0,0,3.9639,3.9812,3.9887,4.0005,4.008,4.0129,4.0244,4.0324,4.0484,4.0535,4.0522,4.0769,4.0856,4.1025,4.1057,4.1113,4.1144,4.1114,4.1255,4.1267,4.1278,4.1321,4.1337,4.1144,4.1144,4.1144,4.1144,0,3.9626,3.9716,3.9831,3.9918,4.0048,4.0115,4.0142,4.028,4.0328,4.0476,4.0513,4.0613,4.0811,4.0896,4.0965,4.1097,4.1118,4.1132,4.1171,4.125,4.1262,4.1273,4.1317,4.1332,4.1143,4.1143,4.1143,0,3.9523,3.9626,3.9692,3.9871,3.9957,4.0069,4.0065,4.0185,4.0268,4.0316,4.0461,4.0532,4.0655,4.0806,4.0877,4.0868,4.1088,4.1037,4.104,4.1049,4.1131,4.1145,4.1158,4.0986,4.0985,4.0985,0,0,3.9499,3.9611,3.9747,3.9875,3.9926,4.0028,4.0098,4.0143,4.0254,4.0298,4.0389,4.0495,4.061,4.0684,4.0798,4.0952,4.0982,4.1013,4.1021,4.1027,4.1038,4.1121,4.1136,4.0981,4.0981,4.0981,0,0,3.9487,3.9649,3.9668,3.9829,3.9933,4.0074,4.0148,4.0174,4.0286,4.0283,4.0364,4.0396,4.0539,4.0608,4.0551,4.0789,4.0763,4.0779,4.0739,4.075,4.0757,4.0737,4.056,0,0,0,0,0,3.9519,3.9629,3.9645,3.9685,3.9912,4.0066,4.0095,4.0165,4.0144,4.0201,4.0281,4.0301,4.0593,4.0544,4.0583,4.0645,4.0936,4.0944,4.0952,4.0937,4.0948,4.0956,0,0,0,0,0,0,3.9536,3.9585,3.9642,3.9787,3.9839,4.0063,4.0042,4.0064,4.014,4.0141,4.0285,4.0306,4.0368,4.0529,4.0563,4.0621,4.0549,4.0939,4.0946,4.0952,4.0941,4.0949,4.0956,0,0,0,0,0,3.9549,3.9589,3.9935,3.9786,3.9831,3.995,4.0038,4.0057,4.0116,4.0243,4.0264,4.0163,4.0368,4.0401,4.055,4.0604,4.0526,4.0539,4.0944,4.0949,4.0954,4.0945,0,0,0,0,0,0,3.9559,3.9607,3.9946,3.9962,3.975,3.9939,3.9971,4.005,4.0214,4.0237,4.0124,4.0123,4.0369,4.0394,4.0419,4.0594,4.0508,4.052,4.0528,4.0948,4.0952,4.0956,0,0,0,0,0,0,3.9586,3.962,3.9954,3.9905,3.9917,3.9928,3.9957,4.0095,4.0216,4.0086,4.0091,4.0121,4.0331,4.039,4.041,4.0622,4.0494,4.0506,4.0514,4.0519,4.0951,4.0954,0,0,0,0,0,0,3.9601,3.9631,3.9902,3.991,3.992,4.0107,4.0051,4.0279,4.0174,4.0078,4.0167,4.0163,4.0326,4.0348,4.0403,4.0607,4.0618,4.0494,4.0502,4.0508,4.0512,0,0,0,0,0,0,0,3.9614,3.94,3.985,3.9914,3.9923,4.0112,4.0116,4.0121,4.0173,4.017,4.0167,4.0165,4.0426,4.0439,4.0452,4.0594,0,0,4.0493,4.0499,0,0,0,0,0,0,0,0,3.9389,3.9397,3.985,3.9854,3.9857,4.0113,4.0116,4.012,4.0173,4.0171,4.0168,4.0166,4.0429,4.044,4.0451,0,0,0,0,0,0,0,0,0,0,0,0,0,0,0,3.9851,3.9853,0,4.0113,4.0116,4.0119,4.0173,4.0171,4.0169,4.0167,4.0432,4.0441,4.045,0,0,0,0,0,0,0,0,0,0,0,0,0,0,0,0,0,0,0,0,0,0,0,0,0,0,0,0,0,0,0,0,0,0,0,0,0,0,0,0,0,0,0,0,0,0,0,0,0,0,0,0,0,0,0,0,0,0,0,0,0,0,0,0,0,0,0,0,0]}],[{"header":{"parameterUnit":"kt","parameterCategory":2,"dx":1,"dy":1,"la1":30.253999710083008,"la2":30.299108505249023,"lo1":-89.0895004272461,"lo2":-89.04439544677734,"nx":28,"ny":28,"refTime":"2022-09-25T21:00:00:Z","depth":0,"parameterNumber":2,"parameterNumberName":"V-component_of_WINDS"},"data":[5.5184,5.521,5.517,5.5181,5.5148,5.5148,5.5135,5.5114,5.5088,5.5082,5.5072,5.5034,5.4991,5.4968,5.4953,5.4936,5.4932,5.497,5.4944,5.4812,5.4791,5.4771,5.4761,5.4971,5.4971,5.5085,5.5086,5.5087,5.5089,5.5056,5.5051,5.5019,5.5013,5.4953,5.4922,5.4921,5.4923,5.489,5.4878,5.487,5.4858,5.48,5.4781,5.4791,5.4761,5.4789,5.4786,5.478,5.4638,5.4629,5.4813,5.4813,5.4813,5.4813,5.4813,5.4813,5.4905,5.4922,5.4879,5.4873,5.4846,5.4825,5.4834,5.4787,5.4781,5.4758,5.4711,5.4712,5.4671,5.4628,5.4604,5.4602,5.4564,5.4581,5.4585,5.4591,5.4601,5.4439,5.4597,5.4597,5.4596,5.4596,5.4595,0,5.4757,5.4723,5.4715,5.4696,5.4689,5.467,5.4645,5.465,5.4562,5.4561,5.4555,5.4544,5.4523,5.4512,5.4486,5.4456,5.4392,5.4381,5.4393,5.4415,5.4437,5.4424,5.4192,5.4377,5.4375,5.4373,5.4372,5.4371,5.4567,5.4593,5.4529,5.4529,5.4505,5.4507,5.4499,5.442,5.4415,5.4372,5.4391,5.438,5.4366,5.4363,5.4306,5.4291,5.4259,5.4333,5.4256,5.4276,5.4257,5.4256,5.4257,5.435,5.4352,5.4355,5.4357,0,5.4463,5.4398,5.4425,5.4358,5.4342,5.4373,5.4316,5.433,5.4282,5.4295,5.4293,5.4218,5.4214,5.4145,5.4126,5.4089,5.4136,5.4107,5.4149,5.4139,5.4198,5.4193,5.4402,5.4425,5.4209,5.4211,5.4213,0,5.4275,5.4312,5.4211,5.423,5.4268,5.4187,5.4227,5.4189,5.4153,5.4162,5.4078,5.4089,5.3999,5.3999,5.3946,5.3972,5.3969,5.3942,5.3927,5.3949,5.3952,5.3944,5.3933,5.3895,5.3894,5.3893,5.3892,0,5.4118,5.4108,5.4139,5.4126,5.4059,5.4075,5.4048,5.4006,5.3999,5.3979,5.3974,5.3957,5.3947,5.3935,5.3867,5.3816,5.3898,5.3815,5.387,5.3872,5.3891,5.3891,5.4095,5.3891,5.3891,5.389,5.389,0,5.3955,5.3937,5.3992,5.3933,5.3934,5.3955,5.3932,5.3933,5.3896,5.3863,5.3847,5.3782,5.3801,5.3723,5.3747,5.3701,5.3696,5.3672,5.3675,5.3671,5.3586,5.3708,5.3911,5.3929,5.3669,5.3667,5.3665,0,5.3793,5.3831,5.3761,5.3816,5.3823,5.3727,5.3748,5.3718,5.3676,5.3676,5.363,5.3631,5.3558,5.3549,5.357,5.3522,5.3583,5.3512,5.3511,5.3512,5.3522,5.3708,5.3755,5.3875,5.3641,5.3644,5.3645,0,5.3659,5.3576,5.3591,5.3572,5.3519,5.3525,5.355,5.3533,5.3537,5.3512,5.353,5.3531,5.3475,5.3461,5.3407,5.3432,5.3539,5.3369,5.3367,5.3401,5.3624,5.3667,5.3688,5.3497,5.35,5.3502,5.3626,0,5.3424,5.3434,5.3472,5.3434,5.3428,5.3459,5.3385,5.3389,5.3336,5.3292,5.3318,5.3275,5.3258,5.3263,5.3213,5.3295,5.327,5.3211,5.3129,5.3253,5.3292,5.3308,5.3077,5.3075,5.3072,5.307,0,0,5.3284,5.3298,5.322,5.3241,5.3231,5.3131,5.317,5.3149,5.3109,5.3104,5.3058,5.3053,5.3021,5.306,5.3093,5.3087,5.3094,5.3054,5.3195,5.321,5.3223,5.3265,5.3283,5.3066,5.3065,5.3064,5.3064,0,5.3182,5.3152,5.3192,5.3166,5.3125,5.3075,5.3086,5.3027,5.3,5.3026,5.2942,5.2949,5.2949,5.2925,5.2912,5.3048,5.2984,5.3048,5.3145,5.3174,5.3191,5.3207,5.3253,5.3271,5.3058,5.3058,5.3058,0,5.3035,5.2992,5.3004,5.2977,5.295,5.2961,5.2857,5.2874,5.288,5.277,5.2797,5.2764,5.2726,5.2773,5.2792,5.275,5.2888,5.2832,5.2845,5.2846,5.287,5.2891,5.291,5.2662,5.2661,5.266,0,0,5.2958,5.2967,5.2896,5.295,5.2938,5.2866,5.2864,5.2812,5.278,5.2768,5.2723,5.2695,5.2692,5.2693,5.2688,5.2752,5.2736,5.2787,5.2805,5.2821,5.283,5.2858,5.2879,5.2656,5.2656,5.2656,0,0,5.292,5.2839,5.2792,5.2845,5.2818,5.2751,5.2787,5.2727,5.2715,5.2703,5.2616,5.2604,5.2647,5.2618,5.2572,5.2657,5.2578,5.2588,5.2675,5.2697,5.2716,5.2721,5.2459,0,0,0,0,0,5.2778,5.2849,5.2807,5.2805,5.2771,5.2775,5.277,5.2699,5.2643,5.2673,5.2626,5.2558,5.2575,5.2532,5.2531,5.2583,5.2603,5.2612,5.2621,5.2748,5.2772,5.2793,0,0,0,0,0,0,5.2776,5.2774,5.2805,5.2743,5.2734,5.2771,5.2662,5.2644,5.2638,5.2625,5.257,5.2557,5.2496,5.2527,5.2528,5.2579,5.2459,5.2607,5.2615,5.2622,5.2756,5.2776,5.2793,0,0,0,0,0,5.2775,5.2773,5.2737,5.2741,5.2734,5.2656,5.2659,5.2643,5.2637,5.2565,5.255,5.2584,5.25,5.2495,5.2527,5.258,5.2458,5.2459,5.2612,5.2618,5.2624,5.2766,0,0,0,0,0,0,5.2774,5.2759,5.2734,5.2729,5.2709,5.2653,5.2642,5.2642,5.2576,5.2562,5.2575,5.2565,5.2503,5.2499,5.2496,5.2585,5.2458,5.2458,5.2458,5.2617,5.2622,5.2626,0,0,0,0,0,0,5.2759,5.2755,5.2732,5.2695,5.2685,5.265,5.264,5.2657,5.2576,5.2589,5.2579,5.2571,5.2508,5.2502,5.2499,5.2529,5.2457,5.2457,5.2458,5.2458,5.2621,5.2625,0,0,0,0,0,0,5.2756,5.2753,5.2695,5.2688,5.2679,5.2619,5.2664,5.2633,5.2545,5.2594,5.2535,5.253,5.2513,5.2508,5.2502,5.2534,5.253,5.2457,5.2457,5.2458,5.2458,0,0,0,0,0,0,0,5.2754,5.2793,5.2763,5.2683,5.2675,5.2684,5.2683,5.2682,5.2544,5.254,5.2536,5.2532,5.2455,5.2455,5.2456,5.2538,0,0,5.2457,5.2457,0,0,0,0,0,0,0,0,5.2793,5.2793,5.2763,5.2762,5.2761,5.2684,5.2683,5.2682,5.2543,5.254,5.2537,5.2534,5.2455,5.2455,5.2455,0,0,0,0,0,0,0,0,0,0,0,0,0,0,0,5.2763,5.2762,0,5.2684,5.2683,5.2682,5.2543,5.254,5.2538,5.2535,5.2455,5.2455,5.2455,0,0,0,0,0,0,0,0,0,0,0,0,0,0,0,0,0,0,0,0,0,0,0,0,0,0,0,0,0,0,0,0,0,0,0,0,0,0,0,0,0,0,0,0,0,0,0,0,0,0,0,0,0,0,0,0,0,0,0,0,0,0,0,0,0,0,0,0,0]}]]]